Home   Weather   Rio de Janeiro   Past weeks

Flag for Brazil Past Weather in Rio de Janeiro, Rio de Janeiro, Brazil — Yesterday and Last 2 Weeks

Now
77 °F

Sunny.


Feels Like: 79 °F
Forecast: 66 / 79 °F
Wind: 10 mph from South

Location: Rio De Janeiro Airport

Current Time: Jul 27, 2017 at 3:52:10 pm

Latest Report: Jul 27, 2017 at 3:00 pm


Visibility: 10 mi

Pressure: 30.21 "Hg

Humidity: 61%

Dew Point: 63 °F

Location of Rio de JaneiroLocation

Past Weather in Rio de Janeiro — Graph

°F

Rio de Janeiro Temperature Yesterday

Maximum temperature yesterday: 81 °F (at 12:00 pm)
Minimum temperature yesterday: 64 °F (at 5:00 am)
Average temperature yesterday: 72 °F

High & Low Weather Summary for the Past Weeks

 TemperatureHumidityPressure
High84 °F (Jul 17, 1:00 pm)100% (Jul 13, 7:00 am)30.33 "Hg (Jul 13, 7:00 am)
Low61 °F (Jul 19, 5:00 am)30% (Jul 18, 5:00 pm)30.04 "Hg (Jul 17, 3:00 pm)
Average71 °F79%30.21 "Hg
* Reported Jul 12 2:00 pm — Jul 27 2:00 pm, Rio de Janeiro. Weather by CustomWeather, © 2017

Note: Actual official high and low records may vary slightly from our data, if they occured in-between our weather recording intervals... More about our weather records

Advertising

Rio de Janeiro Weather History for the Previous 24 Hours

Scroll right to see more
 ConditionsComfort  
Time TempWeatherWind HumidityBarometerVisibility
2:00 pm
Thu, Jul 27
77 °FPassing clouds.14 mph69%30.24 "HgN/A
1:00 pm77 °FPassing clouds.10 mph61%30.24 "HgN/A
12:00 pm77 °FSunny.3 mph54%30.27 "Hg10 mi
11:00 am77 °FSunny.5 mph51%30.27 "Hg10 mi
10:00 am77 °FSunny.6 mph54%30.30 "Hg10 mi
9:00 am73 °FSunny.5 mph61%30.27 "Hg10 mi
8:00 am72 °FPassing clouds.2 mph57%30.27 "HgN/A
7:00 am66 °FPassing clouds.2 mph73%30.24 "HgN/A
6:00 am64 °FPassing clouds.3 mph78%30.24 "HgN/A
5:00 am66 °FPassing clouds.6 mph78%30.24 "HgN/A
4:00 am66 °FPassing clouds.2 mph78%30.21 "HgN/A
3:00 am66 °FPassing clouds.No wind78%30.24 "HgN/A
2:00 am66 °FPassing clouds.2 mph78%30.24 "HgN/A
1:00 am70 °FClear.6 mph69%30.24 "Hg10 mi
12:00 am70 °FClear.8 mph69%30.24 "Hg10 mi
11:00 pm
Wed, Jul 26
70 °FClear.3 mph73%30.24 "Hg10 mi
10:00 pm72 °FClear.3 mph65%30.24 "Hg10 mi
9:00 pm72 °FClear.7 mph65%30.24 "Hg10 mi
8:00 pm72 °FClear.7 mph73%30.21 "Hg10 mi
7:00 pm72 °FClear.7 mph78%30.21 "Hg10 mi
6:00 pm73 °FPassing clouds.10 mph74%30.18 "HgN/A
5:00 pm75 °FPassing clouds.8 mph69%30.18 "HgN/A
4:00 pm77 °FSunny.9 mph65%30.18 "Hg10 mi
3:00 pm79 °FPassing clouds.9 mph61%30.18 "HgN/A
Weather by CustomWeather, © 2017

See weather overviewHow to use our weather pages